This demonstration page uses our WeatherBlox Daily Observations layout. Learn more.

Left ArrowRight Arrow

39.29038, -76.61219

Hourly Observations for June 8, 2020

Temp ( °F °C ) Dew Point ( °F °C ) Humidity (%) Winds ( mph kmh ) Pressure ( in mb ) Visibility ( mi km ) Precip ( " mm )
12:54 am 00:54 Partly Cloudy 65 18.3 55 12.8 70 70 Calm 30.00 1016 10 16 0.00 0.00
1:54 am 01:54 Clear 67 19.4 51 10.6 57 57 NE 7 11 30.01 1016 10 16 0.00 0.00
2:54 am 02:54 Clear 66 18.9 49 9.4 54 54 NE 6 9 30.01 1016 10 16 0.00 0.00
3:54 am 03:54 Clear 65 18.3 47 8.3 52 52 ENE 6 9 30.01 1016 10 16 0.00 0.00
4:54 am 04:54 Mostly Clear 63 17.2 47 8.3 56 56 NNE 6 9 30.02 1017 10 16 0.00 0.00
5:54 am 05:54 Partly Cloudy 62 16.7 46 7.8 56 56 NNE 3 6 30.03 1017 10 16 0.00 0.00
6:54 am 06:54 Partly Cloudy 64 17.8 51 10.6 63 63 Calm 30.06 1018 10 16 0.00 0.00
7:54 am 07:54 Partly Cloudy 68 20 48 8.9 49 49 N 6 9 30.07 1018 10 16 0.00 0.00
8:54 am 08:54 Mostly Sunny 71 21.7 44 6.7 38 38 ENE 9 15 30.08 1019 10 16 0.00 0.00
9:54 am 09:54 Mostly Sunny 72 22.2 44 6.7 37 37 VRB 5 7 30.08 1019 10 16 0.00 0.00
10:54 am 10:54 Mostly Sunny 75 23.9 46 7.8 36 36 VRB 5 7 30.08 1019 10 16 0.00 0.00
11:54 am 11:54 Mostly Sunny 77 25 46 7.8 33 33 NNE 5 7 30.07 1018 10 16 0.00 0.00
12:54 pm 12:54 Mostly Sunny 78 25.6 49 9.4 36 36 VRB 5 7 30.06 1018 10 16 0.00 0.00
1:54 pm 13:54 Mostly Sunny 79 26.1 50 10 36 36 VRB 7 11 30.05 1018 10 16 0.00 0.00
2:54 pm 14:54 Mostly Sunny 80 26.7 50 10 35 35 WSW 7 11 30.02 1017 10 16 0.00 0.00
3:54 pm 15:54 Mostly Sunny 82 27.8 50 10 33 33 VRB 6 9 30.01 1016 10 16 0.00 0.00
4:54 pm 16:54 Mostly Sunny 82 27.8 48 8.9 31 31 NW 10 17 30.00 1016 10 16 0.00 0.00
5:54 pm 17:54 Mostly Sunny 82 27.8 48 8.9 31 31 NNE 3 6 29.98 1015 10 16 0.00 0.00
6:54 pm 18:54 Mostly Sunny 82 27.8 49 9.4 32 32 NW 6 9 29.97 1015 10 16 0.00 0.00
7:54 pm 19:54 Mostly Sunny 77 25 53 11.7 43 43 ESE 8 13 29.98 1015 10 16 0.00 0.00
8:54 pm 20:54 Mostly Clear 73 22.8 54 12.2 51 51 SSE 6 9 29.99 1016 10 16 0.00 0.00
9:54 pm 21:54 Clear 72 22.2 54 12.2 53 53 Calm 30.01 1016 10 16 0.00 0.00
10:54 pm 22:54 Clear 68 20 54 12.2 61 61 Calm 30.02 1017 10 16 0.00 0.00
11:54 pm 23:54 Clear 64 17.8 55 12.8 73 73 Calm 30.01 1016 10 16 0.00 0.00

Powered by AerisWeather